Weather in Richmond

Australia     33°36′02″S   150°45′11″E
temp.,
°C
wind,
m/s
gust,
m/s
humid.,
%
clouds,
%
prec.,
mm/h
press.,
hPa
HPBL,
m
24 october, sun
sun2423:00+16wnw22936 1.0 101144
02:00+17wnw118781 0.0 101111
05:00+14ssw13964 0.0 101276
08:00+16sse238012 0.0 1015611
11:00+23se25280 0.0 10142094
14:00+27sse35162 0.0 10113302
17:00+21ese54433 0.0 10131254
20:00+13ese127216 0.0 101754
25 october, mon
mon2523:00+14wnw126899 0.0 101878
02:00+11wnw11830 0.0 101616
05:00+9nw21890 0.0 101626
08:00+15wnw14430 0.0 1016421
11:00+22ssw25190 0.0 10152418
14:00+26ssw25130 0.0 10123460
17:00+20se65410 0.0 10131263
20:00+12ese11751 0.0 101716
26 october, tue
tue2623:00+9w118822 0.0 101914
02:00+9nw119038 0.0 101910
05:00+8nnw11920 0.0 101910
08:00+15nne11625 0.0 1020401
11:00+22e22360 0.0 10191837
14:00+25e34245 0.0 10152482
17:00+23ese66390 0.0 1014875
20:00+13se11820 0.0 102021
27 october, wed
wed2723:00+14w1179100 0.0 102152
02:00+14s117999 0.0 102046
05:00+14nw008391 0.0 102021
08:00+17nnw12640 0.0 1020368
11:00+25ne23350 0.0 10181635
14:00+30e36180 0.0 10142549
17:00+27se4535100 0.0 1014758
20:00+17s118068 0.0 101711
28 october, thu
thu2823:00+14w1196100 0.0 101921
02:00+14w1190100 0.0 101711
05:00+13nw118533 0.0 101711
08:00+20n12425 0.0 1016201
11:00+31e231626 0.0 10141535
14:00+34se3412100 0.0 10112498
17:00+31e5526100 0.0 1011795
20:00+20s115950 0.0 101414